This is the latest recevied weather packets stored in our database for station/object KC9VAF. If no packets are shown the sender has not sent any weather packets the latest 10 day(s).
| Time | Temp. | Humidity | Pressure | Rain* | Wind** | Luminosity | Snow |
|---|---|---|---|---|---|---|---|
| 1778245758 | 8.89° C | 76% | 1012.1 hPa | 0 mm | - | 102 W/m² | - |
| 1778245455 | 8.33° C | 77% | 1012.1 hPa | 0 mm | - | 92 W/m² | - |
| 1778245150 | 7.78° C | 79% | 1012.1 hPa | 0 mm | - | 112 W/m² | - |
| 1778244846 | 7.22° C | 79% | 1012.2 hPa | 0 mm | - | 75 W/m² | - |
| 1778244545 | 6.67° C | 81% | 1012.1 hPa | 0 mm | - | 144 W/m² | - |
| 1778244242 | 6.67° C | 82% | 1012 hPa | 0 mm | - | 65 W/m² | - |
| 1778243940 | 6.11° C | 83% | 1012.2 hPa | 0 mm | - | 94 W/m² | - |
| 1778243638 | 5.56° C | 85% | 1012.2 hPa | 0 mm | - | 67 W/m² | - |
| 1778243334 | 5° C | 86% | 1012.3 hPa | 0 mm | - | 62 W/m² | - |
| 1778243031 | 5° C | 86% | 1012.2 hPa | 0 mm | - | 73 W/m² | - |
| 1778242728 | 4.44° C | 87% | 1012.2 hPa | 0 mm | - | 54 W/m² | - |
| 1778242426 | 3.89° C | 89% | 1012.1 hPa | 0 mm | - | 48 W/m² | - |
| 1778242123 | 3.89° C | 91% | 1012.1 hPa | 0 mm | - | 45 W/m² | - |
| 1778241822 | 3.33° C | 92% | 1012.1 hPa | 0 mm | - | 46 W/m² | - |
| 1778241519 | 2.78° C | 94% | 1012 hPa | 0 mm | - | 43 W/m² | - |
| 1778241216 | 2.78° C | 94% | 1012 hPa | 0 mm | - | 40 W/m² | - |
| 1778240912 | 2.78° C | 94% | 1012 hPa | 0 mm | - | 37 W/m² | - |
| 1778240610 | 1.67° C | 95% | 1012.3 hPa | 0 mm | - | 35 W/m² | - |
| 1778240306 | 1.67° C | 95% | 1011.9 hPa | 0 mm | - | 33 W/m² | - |
| 1778240004 | 1.67° C | 95% | 1011.9 hPa | 0 mm | - | 28 W/m² | - |
| 1778239700 | 1.67° C | 95% | 1012 hPa | 0 mm | - | 26 W/m² | - |
| 1778239398 | 1.67° C | 95% | 1012.1 hPa | 0 mm | - | 23 W/m² | - |
| 1778239094 | 1.11° C | 95% | 1011.9 hPa | 0 mm | - | 25 W/m² | - |
| 1778238791 | 1.11° C | 96% | 1011.8 hPa | 0 mm | - | 19 W/m² | - |
| 1778238489 | 0.56° C | 96% | 1012 hPa | 0 mm | - | 14 W/m² | - |
* Rain latest hour (hover to see other rain measurements)
** Current wind speed in m/s (hover to see current wind gust speed)